Terminal Aerodrome Forecast
Issued by NWS La Crosse, WI

Home | Current Version | Previous Version | Text Only | Print | Product List | Glossary On
Versions: 1 2 3 4 5 6 7 8 9 10 11 12 13 14 15 16 17 18 19 20 21 22 23 24 25 26 27 28 29 30 31 32 33 34 35 36 37 38 39 40 41 42 43
000
FTUS43 KARX 021727
TAFLSE
TAF
KLSE 021727Z 0218/0318 18009KT P6SM SCT060
      TEMPO 0219/0221 BKN060
     FM022100 17009G18KT P6SM SCT060 SCT250
     FM030100 15005KT P6SM SCT250
     FM030900 17003KT 3SM BR SKC
     FM031400 17005KT P6SM SKC=

USA.gov is the U.S. government's official web portal to all federal, state and local government web resources and services.